Torna al catalogo

STARLINK-33533

AttivoComunicazioniVLEO
NORAD 63387·PAYLOAD·🇺🇸 United States

Lanciato Mar 26, 2025 da Vandenberg Space Force Base

Loading…

Prossimi Passaggi (prossime 24 ore)

TLE

AggiornatoSource: CelesTrak SupGP

Epoca: Sep 14, 2026, 22:54 UTC

1 63387C 25063AA  26257.95465278  .00032491  00000+0  95988-3 0  2578
2 63387  53.1573 247.6980 0001307  97.1588   0.0773 15.34376971    12

Traccia STARLINK-33533 in tempo reale con AllMySat

Download on the App Store